Find Gao Fen 5-01A

NORAD ID: 54640 Int'l Des: 2022-165 Owner: GWHYZ Country: CN operational
LEOCIRCULARRETROGRADESSO

Current View

Loading 3D Globe...

About Gao Fen 5-01A

Gao Fen 5-01A (NORAD 54640) is a satellite launched Dec 8, 2022 by GWHYZ of CN. It operates in LEO, CIRCULAR, RETROGRADE, SSO orbit with a mass of 2000.00 kg.

Upcoming Passes

Passes for default location (London). Set your location on the main map for personalized predictions.

Altitude History

Loading altitude history...

Two-Line Element Set

1 54640U 22165A 26194.60680279 .00000171 00000-0 47374-4 0 9993
2 54640 98.2349 131.6632 0000675 335.4225 24.6942 14.57718765191267
Epoch: Jul 13, 2026 • Age: 11 hours

Current Status

Altitude 703.2 km
Apogee / Perigee N/A
Velocity 7.50 km/s
Sub-Earth Point 10.64°N, 3.41°E
Launch Date Dec 8, 2022
Age 3.5 years
Type other

Technical Details

Classification Payload
Mass 2000.00 kg
Dry Mass 2000.00 kg
Total Mass 2000.00 kg
Length 2.00 m
Diameter 2.00 m
Span 8.00 m
Shape Box + 1 Pan
Manufacturer SAST
Bus Type SAST-1000
Phase Status In Orbit
Owner/State GWHYZ/CN

Most Searched